Location: Ecklingerode
(51.5036°N, 10.3122°E)
Time: 13:19:12
(UTC+00:00)

FALCON 9 DEB - Pass Details

Date: 29 October 2020
Orbit: 382 x 399 km, 53.0° (Epoch: 28 November)

Event Time Altitude Azimuth Distance (km) Brightness Sun altitude
Rises 18:15:15 0° 262° (W) 2,321 8.2 -22.0°
Reaches altitude 10° 18:17:20 10° 265° (W) 1,459 6.9 -22.4°
Enters shadow 18:19:49 47° 281° (W) 543 3.9 -22.8°
